Find Starlink 33596

NORAD ID: 62758 Int'l Des: 2025-015 Owner: SPXS Country: US Constellation: starlink operational
LEOCIRCULAR

現在のビュー

3D地球を読み込み中...

About Starlink 33596

Starlink 33596 (NORAD 62758) is a starlink constellation satellite (v2 mini) launched Jan 21, 2025 by SPXS of US. It operates in LEO, CIRCULAR orbit with a mass of 575.00 kg.

Starlink 33596について

説明を読み込み中...

次回通過

Passes for default location (London). Set your location on the main map for personalized predictions.

高度履歴

Loading altitude history...

軌道要素

1 62758U 25015A 26171.35151444 .00011662 00000-0 38684-3 0 9993
2 62758 53.1594 205.2844 0001266 90.7644 269.3502 15.31712947 80136
Epoch: Jun 20, 2026 • Age: 27 hours

現在のステータス

高度 470.6 km
速度 7.63 km/s
衛星直下点 14.93°N, 134.81°E
打ち上げ日 Jan 21, 2025
運用期間 1.4 years
タイプ internet

技術仕様

分類 Payload
質量 575.00 kg
乾燥質量 530.00 kg
総質量 575.00 kg
長さ 0.30 m
直径 4.10 m
スパン 29.00 m
形状 Box + pan
製造者 SPXS
バスタイプ Starlink V2MO
フェーズステータス In Orbit
所有者/国 SPXS/US

Most Searched